[[{"header":{"parameterUnit":"m.s-1","parameterCategory":2,"la1":30.2992,"la2":30.254,"lo1":-89.0895,"lo2":-89.0443,"dy":0.0025,"dx":0.0025,"nx":19,"ny":19,"refTime":"2026-05-24T09:00:00:Z","depth":"0","parameterNumber":2,"parameterNumberName":"U-component_of_CURRENTS"},"data":[0,0,0,0.074,0.0741,0.0742,0.0742,0.0767,0.0767,0,0,0,0,0,0,0,0,0,0,0,0.0733,0.0733,0.074,0.0741,0.0742,0.0742,0.0767,0.0767,0,0,0,0,0,0,0,0,0,0,0,0.0733,0.0733,0.0733,0.0741,0.0742,0.0742,0.0767,0.0759,0,0,0,0,0,0,0,0,0,0,0.0754,0.0736,0.0733,0.0733,0.0741,0.0742,0.0742,0.0758,0.0759,0.0774,0,0.077,0,0.0775,0.077,0.077,0,0,0,0.0737,0.0735,0.0747,0.0733,0.0741,0.0742,0.074,0.0759,0.076,0.0775,0.0771,0.0772,0.0775,0.077,0.077,0.0805,0.0805,0,0,0.0737,0.0724,0.0746,0.0747,0.0737,0.074,0.0741,0.0759,0.0753,0.0771,0.0772,0.0776,0.077,0.077,0.0805,0.0805,0,0,0,0.0739,0.0724,0.0734,0.0746,0.0748,0.0741,0.0741,0.0752,0.0758,0.0773,0.0776,0.077,0.0771,0.0804,0.0805,0.0805,0,0,0,0.0739,0.0726,0.0734,0.0725,0.0747,0.0745,0.0733,0.0757,0.0759,0.0776,0.077,0.0771,0.0804,0.0805,0.0804,0.081,0,0,0,0.0733,0.0725,0.0726,0.0725,0.0729,0.0745,0.0751,0.0757,0.0762,0.077,0.0771,0.0804,0.0805,0.0804,0.0809,0.0857,0,0,0,0.0719,0.0701,0.0726,0.0709,0.0729,0.0731,0.0751,0.0749,0.0752,0.077,0.0804,0.0805,0.0804,0.0809,0.0856,0.0939,0.0951,0,0,0.0687,0.0696,0.0688,0.0711,0.0705,0.0731,0.0734,0.0748,0.0764,0.0799,0.08,0.0804,0.0809,0.0857,0.0953,0.0964,0,0,0,0.0673,0.0666,0.0666,0.0672,0.0689,0.0719,0.0732,0.0752,0.0783,0.0769,0.0809,0.0813,0.0843,0.0891,0.0899,0.1026,0.0806,0.0806,0.0806,0.0584,0.0618,0.061,0.0651,0.0666,0.0709,0.0736,0.0772,0.0777,0.0796,0.0816,0.0856,0.0906,0.0914,0.1043,0.0817,0.0817,0.0817,0.0817,0.0535,0.0535,0.0589,0.0601,0.0657,0.0677,0.0755,0.0777,0.0837,0.0825,0.0855,0.0892,0.0924,0.1058,0.0817,0.0817,0.0817,0.0817,0.0817,0.047,0.0483,0.0507,0.0553,0.0605,0.0674,0.0751,0.0802,0.0846,0.0871,0.0955,0.0956,0.1074,0.0896,0.0896,0.0897,0.0897,0.0897,0.0897,0.0401,0.0431,0.0446,0.0508,0.0551,0.0635,0.0757,0.083,0.0943,0.0973,0.0974,0.1114,0.0881,0.0879,0.0901,0.09,0.09,0.0899,0.0899,0.0339,0.0356,0.0381,0.0419,0.0537,0.0655,0.0763,0.0956,0.1031,0.1103,0.1264,0.1042,0.106,0.1053,0.1056,0.1122,0.1122,0.1122,0.1122,0.0293,0.0303,0.0342,0.0404,0.0511,0.0668,0.0868,0.105,0.1285,0.142,0.1426,0.1435,0.142,0.1458,0.1443,0.1453,0.1619,0.162,0.162,0.0268,0.0289,0.0304,0.0374,0.0509,0.0705,0.092,0.116,0.1522,0.165,0.159,0.1569,0.1586,0.1552,0.1611,0.1579,0.1593,0,0]},{"header":{"parameterUnit":"m.s-1","parameterCategory":2,"la1":30.2992,"la2":30.254,"lo1":-89.0895,"lo2":-89.0443,"dy":0.0025,"dx":0.0025,"nx":19,"ny":19,"refTime":"2026-05-24T09:00:00:Z","depth":"0","parameterNumber":3,"parameterNumberName":"V-component_of_CURRENTS"},"data":[0,0,0,-0.081,-0.0811,-0.0853,-0.0853,-0.0929,-0.093,0,0,0,0,0,0,0,0,0,0,0,-0.0789,-0.0789,-0.081,-0.0812,-0.0853,-0.0853,-0.0929,-0.093,0,0,0,0,0,0,0,0,0,0,0,-0.0789,-0.0789,-0.079,-0.0812,-0.0853,-0.0853,-0.0929,-0.0891,0,0,0,0,0,0,0,0,0,0,-0.0847,-0.0824,-0.0789,-0.079,-0.0812,-0.0853,-0.0853,-0.0889,-0.0893,-0.0918,0,-0.0923,0,-0.0935,-0.0936,-0.0936,0,0,0,-0.0807,-0.082,-0.0836,-0.079,-0.0812,-0.0853,-0.0833,-0.0891,-0.0896,-0.0925,-0.0924,-0.0927,-0.0936,-0.0937,-0.0937,-0.1001,-0.1001,0,0,-0.0805,-0.0795,-0.0832,-0.0839,-0.0822,-0.0832,-0.0834,-0.0894,-0.0897,-0.0925,-0.0929,-0.0937,-0.0937,-0.0938,-0.1001,-0.1001,0,0,0,-0.0801,-0.0793,-0.0806,-0.0836,-0.0845,-0.0833,-0.0836,-0.0894,-0.09,-0.093,-0.0938,-0.0938,-0.0939,-0.1001,-0.1001,-0.0962,0,0,0,-0.08,-0.0791,-0.0805,-0.0799,-0.0844,-0.0867,-0.0835,-0.0895,-0.0902,-0.0938,-0.0938,-0.094,-0.1001,-0.1001,-0.0963,-0.0936,0,0,0,-0.0788,-0.079,-0.0795,-0.0799,-0.082,-0.0866,-0.0875,-0.0897,-0.0908,-0.0936,-0.094,-0.1001,-0.1001,-0.0964,-0.0938,-0.0951,0,0,0,-0.0775,-0.0766,-0.0795,-0.0786,-0.0819,-0.0833,-0.0874,-0.0886,-0.0903,-0.0938,-0.1001,-0.1001,-0.0964,-0.0939,-0.0952,-0.0927,-0.0921,0,0,-0.0752,-0.0763,-0.0756,-0.0783,-0.0785,-0.0827,-0.0837,-0.0877,-0.0917,-0.0982,-0.0984,-0.0963,-0.0938,-0.0952,-0.093,-0.0924,0,0,0,-0.0741,-0.0733,-0.074,-0.0749,-0.0776,-0.0808,-0.0849,-0.0877,-0.0928,-0.0931,-0.0975,-0.0961,-0.097,-0.0957,-0.0953,-0.0937,-0.1001,-0.1001,-0.1001,-0.0687,-0.0701,-0.0688,-0.0714,-0.0734,-0.079,-0.0818,-0.087,-0.091,-0.0929,-0.0938,-0.0932,-0.0918,-0.0914,-0.0898,-0.0955,-0.0955,-0.0955,-0.0954,-0.0639,-0.0622,-0.0649,-0.0642,-0.069,-0.0706,-0.0796,-0.0833,-0.0896,-0.092,-0.0933,-0.0928,-0.0907,-0.0891,-0.0952,-0.0953,-0.0953,-0.0953,-0.0953,-0.0595,-0.0585,-0.0588,-0.0584,-0.0595,-0.0657,-0.0678,-0.0764,-0.0852,-0.0866,-0.0883,-0.0883,-0.0864,-0.0882,-0.0882,-0.0882,-0.0882,-0.0882,-0.0882,-0.0543,-0.0544,-0.0517,-0.0522,-0.0513,-0.0535,-0.062,-0.0671,-0.0777,-0.0836,-0.0837,-0.0856,-0.0911,-0.0906,-0.0881,-0.0881,-0.0881,-0.0881,-0.0881,-0.0461,-0.0472,-0.0437,-0.0422,-0.041,-0.0397,-0.049,-0.059,-0.068,-0.0727,-0.0794,-0.0836,-0.0851,-0.0854,-0.085,-0.0811,-0.0811,-0.0811,-0.0811,-0.0399,-0.0404,-0.0353,-0.0322,-0.0309,-0.0331,-0.0317,-0.041,-0.061,-0.0695,-0.0756,-0.0756,-0.0759,-0.0769,-0.0775,-0.077,-0.0712,-0.0712,-0.0712,-0.033,-0.0339,-0.0283,-0.0271,-0.025,-0.0253,-0.0184,-0.0147,-0.0477,-0.0707,-0.0737,-0.0741,-0.0742,-0.075,-0.0768,-0.0778,-0.077,0,0]}],[{"header":{"parameterUnit":"m.s-1","parameterCategory":2,"la1":30.2992,"la2":30.254,"lo1":-89.0895,"lo2":-89.0443,"dy":0.0025,"dx":0.0025,"nx":19,"ny":19,"refTime":"2026-05-24T09:00:00:Z","depth":"2","parameterNumber":2,"parameterNumberName":"U-component_of_CURRENTS"},"data":[0,0,0,0.194,0.1939,0.1936,0.1936,0.2004,0.2005,0,0,0,0,0,0,0,0,0,0,0,0.1947,0.1947,0.194,0.1939,0.1936,0.1936,0.2004,0.2005,0,0,0,0,0,0,0,0,0,0,0,0.1947,0.1947,0.1947,0.1939,0.1936,0.1936,0.2004,0.1989,0,0,0,0,0,0,0,0,0,0,0.1983,0.1969,0.1947,0.1947,0.1939,0.1936,0.1936,0.1987,0.199,0.2026,0,0.2027,0,0.2016,0.2011,0.2011,0,0,0,0.1942,0.1967,0.1975,0.1947,0.1939,0.1936,0.1938,0.1988,0.1991,0.2029,0.2027,0.2029,0.2017,0.2011,0.2012,0.2134,0.2135,0,0,0.1942,0.194,0.1973,0.1977,0.1943,0.1938,0.1938,0.1989,0.1991,0.2028,0.203,0.2018,0.2012,0.2013,0.2133,0.2134,0,0,0,0.1941,0.194,0.1945,0.1975,0.1967,0.1938,0.1938,0.1988,0.1992,0.2031,0.2019,0.2012,0.2014,0.2133,0.2134,0.2153,0,0,0,0.1941,0.1939,0.1945,0.1942,0.1966,0.1965,0.1936,0.1989,0.1994,0.2019,0.2013,0.2014,0.2132,0.2133,0.2151,0.2153,0,0,0,0.1946,0.1939,0.1942,0.1943,0.194,0.1964,0.197,0.1989,0.1987,0.2011,0.2015,0.2131,0.2133,0.2149,0.215,0.2186,0,0,0,0.194,0.1935,0.1942,0.1939,0.194,0.1958,0.1969,0.1975,0.1992,0.2013,0.2132,0.2134,0.2148,0.2149,0.2185,0.2076,0.2076,0,0,0.1929,0.1934,0.1934,0.194,0.1948,0.1958,0.2,0.2018,0.2036,0.2119,0.2121,0.2151,0.215,0.2186,0.2167,0.2164,0,0,0,0.1928,0.1924,0.1931,0.1936,0.1958,0.1999,0.2016,0.2055,0.2119,0.2054,0.2179,0.2178,0.2199,0.213,0.2129,0.2141,0.2141,0.2141,0.2141,0.1889,0.1907,0.1913,0.1943,0.1969,0.2028,0.2081,0.2145,0.2151,0.2193,0.2213,0.2281,0.2209,0.2206,0.224,0.224,0.224,0.2241,0.2241,0.1868,0.1866,0.1907,0.1913,0.1976,0.2016,0.2147,0.218,0.2292,0.2276,0.2296,0.2179,0.2205,0.2243,0.2242,0.2242,0.2242,0.2242,0.2241,0.1832,0.1835,0.1844,0.1869,0.1917,0.2,0.2092,0.2197,0.2291,0.2335,0.226,0.2257,0.2279,0.2341,0.2341,0.2341,0.2341,0.2341,0.2341,0.1785,0.1801,0.1789,0.1822,0.1834,0.1899,0.2056,0.2142,0.2235,0.2276,0.2275,0.2315,0.2311,0.2286,0.2344,0.2344,0.2343,0.2343,0.2343,0.1729,0.1733,0.1719,0.1721,0.1759,0.1789,0.1941,0.2057,0.2164,0.219,0.2252,0.2253,0.2237,0.2236,0.221,0.2246,0.2246,0.2246,0.2246,0.1683,0.1689,0.1653,0.1645,0.1674,0.174,0.1738,0.1737,0.189,0.1866,0.1881,0.1804,0.1818,0.1773,0.1784,0.1746,0.1661,0.1659,0.1658,0.1647,0.1646,0.1599,0.1591,0.1621,0.1668,0.1566,0.1312,0.1297,0.1627,0.1701,0.2222,0.215,0.2155,0.2121,0.2124,0.2078,0,0]},{"header":{"parameterUnit":"m.s-1","parameterCategory":2,"la1":30.2992,"la2":30.254,"lo1":-89.0895,"lo2":-89.0443,"dy":0.0025,"dx":0.0025,"nx":19,"ny":19,"refTime":"2026-05-24T09:00:00:Z","depth":"2","parameterNumber":3,"parameterNumberName":"V-component_of_CURRENTS"},"data":[0,0,0,0.034,0.0339,0.0315,0.0315,0.0265,0.0264,0,0,0,0,0,0,0,0,0,0,0,0.0355,0.0355,0.034,0.0339,0.0315,0.0315,0.0265,0.0264,0,0,0,0,0,0,0,0,0,0,0,0.0355,0.0355,0.0355,0.0339,0.0315,0.0315,0.0265,0.0287,0,0,0,0,0,0,0,0,0,0,0.0313,0.0323,0.0355,0.0355,0.0339,0.0315,0.0315,0.0289,0.0286,0.0271,0,0.0275,0,0.0266,0.0261,0.026,0,0,0,0.0337,0.0325,0.0326,0.0355,0.0339,0.0315,0.0325,0.0287,0.0284,0.0268,0.0274,0.0272,0.0265,0.026,0.026,0.0273,0.0273,0,0,0.0338,0.034,0.0328,0.0324,0.0341,0.0326,0.0324,0.0286,0.0281,0.0274,0.0271,0.0264,0.026,0.026,0.0272,0.0273,0,0,0,0.0344,0.0341,0.0343,0.0326,0.0322,0.0325,0.0323,0.0283,0.0286,0.027,0.0264,0.026,0.0259,0.0272,0.0273,0.0356,0,0,0,0.0344,0.0345,0.0344,0.0343,0.0323,0.0302,0.0322,0.0289,0.0284,0.0264,0.026,0.0258,0.0271,0.0272,0.0353,0.0423,0,0,0,0.0354,0.0345,0.0347,0.0344,0.0334,0.0303,0.0303,0.0288,0.028,0.026,0.0258,0.0271,0.0272,0.035,0.0416,0.0451,0,0,0,0.0351,0.0372,0.0347,0.0373,0.0335,0.0354,0.0303,0.0295,0.0283,0.0259,0.0271,0.0273,0.0349,0.0412,0.0447,0.0502,0.0524,0,0,0.0381,0.0376,0.0395,0.0373,0.0416,0.0357,0.0402,0.0352,0.0298,0.028,0.0281,0.0354,0.0416,0.045,0.0576,0.0596,0,0,0,0.0408,0.0421,0.0432,0.0446,0.0447,0.0466,0.0411,0.0394,0.0369,0.0297,0.0357,0.0394,0.0412,0.0437,0.0453,0.0279,0.0278,0.0278,0.0278,0.0438,0.0455,0.0497,0.0519,0.0534,0.0532,0.0548,0.0514,0.0435,0.0436,0.0462,0.0552,0.058,0.0593,0.0444,0.0444,0.0445,0.0445,0.0445,0.0493,0.0523,0.055,0.0593,0.0621,0.0647,0.0665,0.0629,0.0637,0.0555,0.0566,0.0526,0.0616,0.0452,0.0451,0.045,0.0449,0.0449,0.0448,0.0512,0.0534,0.0554,0.062,0.0685,0.0714,0.0799,0.0779,0.0726,0.0752,0.0727,0.0725,0.0608,0.0724,0.0724,0.0725,0.0725,0.0725,0.0726,0.0519,0.055,0.0589,0.0654,0.0704,0.0787,0.086,0.0897,0.0898,0.0853,0.0852,0.0646,0.0637,0.0624,0.0733,0.0732,0.0731,0.073,0.0729,0.0552,0.0551,0.0613,0.0659,0.0786,0.0904,0.0973,0.1066,0.107,0.1086,0.0902,0.0895,0.0876,0.0862,0.0854,0.1016,0.1016,0.1016,0.1016,0.0561,0.0571,0.064,0.0722,0.0846,0.0963,0.1119,0.112,0.1065,0.094,0.0942,0.0873,0.0865,0.0838,0.0824,0.0812,0.0963,0.0963,0.0962,0.0584,0.0601,0.065,0.0725,0.087,0.1037,0.1171,0.1075,0.0832,0.0949,0.0821,0.1034,0.0937,0.0923,0.0879,0.0858,0.0839,0,0]}],[{"header":{"parameterUnit":"m.s-1","parameterCategory":2,"la1":30.2992,"la2":30.254,"lo1":-89.0895,"lo2":-89.0443,"dy":0.0025,"dx":0.0025,"nx":19,"ny":19,"refTime":"2026-05-24T09:00:00:Z","depth":"4","parameterNumber":2,"parameterNumberName":"U-component_of_CURRENTS"},"data":[0,0,0,0.0493,0.0498,0.0763,0.0765,0.0838,0.0837,0,0,0,0,0,0,0,0,0,0,0,0.0426,0.0427,0.0493,0.0498,0.0763,0.0765,0.0838,0.0837,0,0,0,0,0,0,0,0,0,0,0,0.0425,0.0427,0.0429,0.0499,0.0763,0.0765,0.0838,0.0712,0,0,0,0,0,0,0,0,0,0,0.0491,0.0479,0.0426,0.0429,0.05,0.0762,0.0765,0.0709,0.072,0.0631,0,0.0681,0,0.0728,0.0833,0.0833,0,0,0,0.0532,0.0472,0.0506,0.0429,0.0502,0.0762,0.0653,0.0718,0.0729,0.0643,0.0683,0.0687,0.0729,0.0833,0.0832,0.0797,0.0797,0,0,0.0518,0.0502,0.05,0.0514,0.0575,0.0644,0.0661,0.0728,0.0755,0.0683,0.069,0.073,0.0832,0.0832,0.0797,0.0797,0,0,0,0.0452,0.0492,0.0534,0.0509,0.0561,0.0651,0.067,0.0755,0.0759,0.0691,0.0731,0.0832,0.0831,0.0796,0.0797,0.0919,0,0,0,0.0445,0.0451,0.0527,0.0524,0.0562,0.0702,0.0695,0.0757,0.0765,0.073,0.0832,0.083,0.0796,0.0797,0.0915,0.094,0,0,0,0.0413,0.0448,0.0473,0.0522,0.0615,0.0702,0.0717,0.0762,0.0784,0.0833,0.083,0.0796,0.0797,0.0912,0.0934,0.0922,0,0,0,0.0393,0.0463,0.0474,0.0557,0.0612,0.0717,0.0719,0.0831,0.0884,0.0832,0.0796,0.0797,0.0911,0.0931,0.0919,0.0677,0,0,0,0.0461,0.0471,0.0512,0.0527,0.063,0.0682,0.0785,0.0866,0.0841,0.076,0.0763,0.0916,0.0934,0.0921,0.0691,0,0,0,0,0.0518,0.0557,0.0587,0.0657,0.071,0.0793,0.0865,0.0868,0.0909,0.0866,0.0886,0.0892,0.0881,0.0731,0.0798,0.0798,0.0798,0.0798,0.0798,0.0601,0.0619,0.0692,0.0732,0.0793,0.0878,0.093,0.0934,0.092,0.0953,0.0972,0.1013,0.0861,0.096,0.0961,0.0962,0.0962,0.0962,0.0963,0.0664,0.0686,0.0741,0.0832,0.0886,0.0974,0.0988,0.1021,0.1029,0.1018,0.1003,0.0846,0.0974,0.0972,0.097,0.0969,0.0968,0.0967,0.0967,0.0667,0.0679,0.0772,0.0886,0.0991,0.1055,0.1061,0.1119,0.1116,0.1141,0.0943,0.1058,0.1068,0.1152,0.1152,0.1152,0.1152,0.1152,0.1152,0.0621,0.0703,0.0815,0.0933,0.1004,0.107,0.1128,0.106,0.1086,0.1014,0.1179,0.1075,0.1069,0.1075,0.1153,0.1153,0.1153,0.1153,0.1153,0.0603,0.0705,0.0804,0.0898,0.0981,0.0941,0.105,0.0898,0.0843,0.0727,0.0907,0.0918,0.0831,0.083,0.0825,0.0833,0.083,0.0827,0,0.0613,0.0657,0.0806,0.0861,0.0815,0.0837,0.0683,0.0614,0.0614,0.0663,0.0757,0.0966,0.0972,0.0874,0.0869,0.0861,0,0,0,0.0633,0.0659,0.0738,0.0802,0.0712,0.0575,0.0607,0.0538,0.075,0.0479,0.0755,0.0773,0.0794,0.1157,0.1049,0.1042,0.1045,0,0]},{"header":{"parameterUnit":"m.s-1","parameterCategory":2,"la1":30.2992,"la2":30.254,"lo1":-89.0895,"lo2":-89.0443,"dy":0.0025,"dx":0.0025,"nx":19,"ny":19,"refTime":"2026-05-24T09:00:00:Z","depth":"4","parameterNumber":3,"parameterNumberName":"V-component_of_CURRENTS"},"data":[0,0,0,0.0273,0.0273,0.0249,0.0249,0.0157,0.0156,0,0,0,0,0,0,0,0,0,0,0,0.0286,0.0287,0.0273,0.0273,0.0249,0.0249,0.0158,0.0156,0,0,0,0,0,0,0,0,0,0,0,0.0286,0.0287,0.0287,0.0273,0.0249,0.0249,0.0158,0.0189,0,0,0,0,0,0,0,0,0,0,0.0219,0.0244,0.0286,0.0287,0.0273,0.0249,0.0249,0.0191,0.0187,0.0154,0,0.0162,0,0.0157,0.015,0.0149,0,0,0,0.0264,0.0248,0.0241,0.0287,0.0273,0.0249,0.0257,0.0189,0.0184,0.0148,0.0161,0.0158,0.0156,0.0149,0.0149,0.0033,0.0032,0,0,0.0265,0.0277,0.0244,0.0239,0.028,0.0258,0.0256,0.0187,0.0186,0.0161,0.0156,0.0154,0.0148,0.0148,0.0033,0.0032,0,0,0,0.0275,0.0278,0.0274,0.0242,0.0243,0.0257,0.0256,0.019,0.0189,0.0155,0.0153,0.0148,0.0147,0.0034,0.0033,0.0068,0,0,0,0.0275,0.0284,0.0275,0.028,0.0245,0.0224,0.026,0.0194,0.0186,0.0154,0.0148,0.0146,0.0034,0.0033,0.0068,0.0111,0,0,0,0.0285,0.0284,0.0287,0.0281,0.0274,0.0226,0.0221,0.0192,0.0184,0.0149,0.0145,0.0035,0.0033,0.0069,0.011,0.0094,0,0,0,0.029,0.0288,0.0287,0.0274,0.0275,0.0234,0.0221,0.0186,0.0157,0.0147,0.0034,0.0033,0.0069,0.0109,0.0094,0.0071,0,0,0,0.0286,0.0289,0.0276,0.0274,0.0241,0.0236,0.0189,0.0151,0.0123,0.0053,0.005,0.0068,0.011,0.0094,-0.0004,0,0,0,0,0.0272,0.027,0.0257,0.024,0.0212,0.0191,0.0153,0.0128,0.0079,0.0102,0.0032,0.0057,0.0047,0.003,0.0027,0.0027,0.0027,0.0027,0.0027,0.0282,0.0259,0.0239,0.0212,0.019,0.0147,0.0121,0.0076,0.0057,0.0035,0.0059,0.0038,0.0017,0.0012,0.0012,0.0012,0.0012,0.0012,0.0012,0.0278,0.0264,0.0238,0.0228,0.0197,0.0177,0.0105,0.009,0.0047,0.0041,0.0027,0.0034,0.0015,0.0014,0.0014,0.0013,0.0013,0.0013,0.0013,0.0294,0.0282,0.0293,0.0279,0.0271,0.0237,0.0213,0.0172,0.0101,0.0087,0.0054,0.0054,0.0083,0.0083,0.0083,0.0084,0.0084,0.0084,0.0084,0.0314,0.0309,0.0341,0.0338,0.035,0.0361,0.0308,0.0241,0.0162,0.0101,0.0114,0.0062,0.0059,0.0085,0.0085,0.0085,0.0085,0.0085,0.0085,0.0312,0.0355,0.0384,0.041,0.0418,0.0391,0.039,0.024,0.0171,0.0064,0.0076,0.0076,0.0063,0.0061,0.0086,0.0088,0.0087,0.0087,0,0.0333,0.0345,0.0413,0.0434,0.0411,0.0389,0.0303,0.0215,0.0088,0.011,0.0099,0.0118,0.0116,0.0104,0.0102,0.0133,0,0,0,0.0335,0.0362,0.0409,0.0436,0.0386,0.0284,0.0265,0.0201,0.0187,0.0036,0.008,0.0082,0.0034,0.009,0.0069,0.0067,0.0106,0,0]}]]